Location: Newark
(21.1200°N, 73.4000°E)
Time: 18:21:19
(UTC+00:00)

SR - Pass Details

Date: 05 February 2020
Orbit: 575 x 881 km, 66.7° (Epoch: 17 February)

Event Time Altitude Azimuth Distance (km) Brightness Sun altitude
Rises 14:55:53 0° 242° (WSW) 3,370 ? -27.5°
Reaches altitude 10° 14:59:14 10° 262° (W) 2,479 ? -28.3°
Maximum altitude 15:02:49 17° 301° (WNW) 2,069 ? -29.1°
Drops below altitude 10° 15:06:29 10° 339° (NNW) 2,531 ? -30.0°
Enters shadow 15:09:18 - 357° (N) 3,272 ? -30.6°
Sets 15:09:58 0° 360° (N) 3,473 - -30.8°
